Weather History for Glasgow, United Kingdom

Change the Weather History Date:

Thursday, January 19, 2012

  Actual Average Record
Temperature  
Mean Temperature 38 °F -  
Max Temperature 42 °F 44 °F 53 °F (2004)
Min Temperature 33 °F 32 °F 26 °F (2011)
Degree Days  
Heating Degree Days 28    
Moisture  
Dew Point 34 °F    
Average Humidity 82    
Maximum Humidity 93    
Minimum Humidity 75    
Precipitation  
Precipitation 0.00 in - - ()
Sea Level Pressure  
Sea Level Pressure 29.84 in    
Wind  
Wind Speed 12 mph ()    
Max Wind Speed 21 mph    
Max Gust Speed 30 mph    
Visibility 5.9 miles    
Events Rain    
Averages and records for this station are not official NWS values.
T = Trace of Precipitation, MM = Missing Value Source: Averaged Metar Reports

Daily Weather History Graph

Daily Weather History Graph

Search for Another Location

Airport:

Trip Planner

Search our weather history database for the weather conditions in past years. The results will help you decide how hot, cold, wet, or windy it might be!

Date:

Astronomy

Jan. 19, 2012 Rise Set
Actual Time 8:34 AM GMT 4:23 PM GMT
Civil Twilight 7:50 AM GMT 5:06 PM GMT
Nautical Twilight 7:03 AM GMT 5:53 PM GMT
Astronomical Twilight 6:19 AM GMT 6:37 PM GMT
Moon 5:07 AM GMT (1/19) 12:28 PM GMT (1/19)
Length of Visible Light 9h 16m
Length of Day
7h 49m
Waning Crescent, 17% of the Moon is Illuminated
Jan 19
Waning Crescent
Jan 23
New
Jan 31
First Quarter
Feb 7
Full
Feb 14
Last Quarter

Hourly Weather History & Observations

Time (GMT) Temp. Windchill Dew Point Humidity Pressure Visibility Wind Dir Wind Speed Gust Speed Precip Events Conditions
12:20 AM 42.8 °F 35.8 °F 39.2 °F 87% 29.92 in 6.2 mi WSW 13.8 mph - N/A   Mostly Cloudy
12:50 AM 42.8 °F 35.4 °F 37.4 °F 81% 29.89 in 6.2 mi WSW 15.0 mph - N/A   Mostly Cloudy
1:20 AM 42.8 °F 35.8 °F 37.4 °F 81% 29.89 in 6.2 mi WSW 13.8 mph 25.3 mph N/A   Mostly Cloudy
1:50 AM 42.8 °F 35.4 °F 37.4 °F 81% 29.89 in 6.2 mi WSW 15.0 mph - N/A   Mostly Cloudy
2:20 AM 42.8 °F 36.6 °F 37.4 °F 81% 29.86 in 6.2 mi WSW 11.5 mph - N/A   Partly Cloudy
2:50 AM 42.8 °F 35.4 °F 37.4 °F 81% 29.86 in 6.2 mi WSW 15.0 mph - N/A Rain Light Rain
3:20 AM 42.8 °F 35.4 °F 37.4 °F 81% 29.86 in 6.2 mi WSW 15.0 mph - N/A   Scattered Clouds
3:50 AM 42.8 °F 35.4 °F 37.4 °F 81% 29.83 in 6.2 mi WSW 15.0 mph - N/A   Mostly Cloudy
4:20 AM 42.8 °F 35.1 °F 37.4 °F 81% 29.83 in 6.2 mi WSW 16.1 mph - N/A   Mostly Cloudy
4:50 AM 42.8 °F 36.6 °F 35.6 °F 76% 29.83 in 6.2 mi West 11.5 mph - N/A   Mostly Cloudy
5:20 AM 41.0 °F 32.5 °F 35.6 °F 81% 29.83 in 5.6 mi WNW 17.3 mph - N/A Rain Light Rain
5:50 AM 41.0 °F 34.7 °F 35.6 °F 81% 29.83 in 6.2 mi West 10.4 mph - N/A   Partly Cloudy
6:20 AM 39.2 °F 32.5 °F 33.8 °F 81% 29.80 in 6.2 mi WSW 10.4 mph - N/A   Partly Cloudy
6:50 AM 41.0 °F 33.9 °F 33.8 °F 76% 29.80 in - West 12.7 mph - N/A   Clear
7:20 AM 41.0 °F 34.3 °F 33.8 °F 76% 29.83 in 5.0 mi West 11.5 mph - N/A Rain Light Rain
7:50 AM 39.2 °F 30.8 °F 33.8 °F 81% 29.86 in 6.2 mi West 15.0 mph - N/A   Scattered Clouds
8:20 AM 37.4 °F 30.8 °F 32.0 °F 81% 29.86 in 6.2 mi WSW 9.2 mph - N/A   Partly Cloudy
8:50 AM 33.8 °F 28.6 °F 32.0 °F 93% 29.86 in 6.2 mi WSW 5.8 mph - N/A   Partly Cloudy
9:20 AM 35.6 °F 32.8 °F 32.0 °F 87% 29.86 in 6.2 mi West 3.5 mph - N/A   Partly Cloudy
9:50 AM 35.6 °F 31.7 °F 32.0 °F 87% 29.86 in 6.2 mi WSW 4.6 mph - N/A   Scattered Clouds
10:20 AM 39.2 °F 34.2 °F 33.8 °F 81% 29.86 in 6.2 mi SW 6.9 mph - N/A   Partly Cloudy
10:50 AM 41.0 °F 35.8 °F 33.8 °F 76% 29.86 in 6.2 mi SSW 8.1 mph - N/A   Scattered Clouds
11:20 AM 41.0 °F 35.8 °F 33.8 °F 76% 29.83 in 6.2 mi South 8.1 mph - N/A   Scattered Clouds
11:50 AM 39.2 °F 29.3 °F 33.8 °F 81% 29.83 in 6.2 mi WSW 20.7 mph - N/A Rain Light Rain
12:20 PM 37.4 °F 30.8 °F 35.6 °F 93% 29.83 in 3.1 mi WSW 9.2 mph - N/A Rain Light Rain
12:50 PM 35.6 °F 28.0 °F 33.8 °F 93% 29.80 in 6.2 mi WSW 10.4 mph - N/A Rain Light Rain
1:20 PM 37.4 °F 34.9 °F 33.8 °F 87% 29.77 in 2.5 mi Variable 3.5 mph - N/A Rain Rain
1:50 PM 37.4 °F 28.2 °F 35.6 °F 93% 29.80 in 6.2 mi West 16.1 mph 28.8 mph N/A Rain Light Rain
2:20 PM 39.2 °F 30.5 °F 33.8 °F 81% 29.77 in 6.2 mi West 16.1 mph - N/A   Scattered Clouds
2:50 PM 41.0 °F 33.9 °F 35.6 °F 81% 29.77 in 3.7 mi West 12.7 mph - N/A Rain Light Rain
3:20 PM 41.0 °F 32.8 °F 33.8 °F 76% 29.77 in 6.2 mi West 16.1 mph 29.9 mph N/A Rain Light Rain
3:50 PM 39.2 °F 31.2 °F 32.0 °F 75% 29.80 in 6.2 mi West 13.8 mph - N/A Rain Rain
4:20 PM 39.2 °F 30.8 °F 33.8 °F 81% 29.80 in 6.2 mi West 15.0 mph - N/A   Mostly Cloudy
4:50 PM 39.2 °F 30.5 °F 32.0 °F 75% 29.80 in 6.2 mi West 16.1 mph - N/A Rain Light Rain
5:20 PM 37.4 °F 28.5 °F 32.0 °F 81% 29.80 in 6.2 mi West 15.0 mph - N/A Rain Light Rain
5:50 PM 37.4 °F 28.2 °F 32.0 °F 81% 29.83 in 6.2 mi West 16.1 mph - N/A   Mostly Cloudy
6:20 PM 37.4 °F 30.3 °F 32.0 °F 81% 29.83 in 6.2 mi West 10.4 mph - N/A   Partly Cloudy
6:50 PM 37.4 °F 28.5 °F 32.0 °F 81% 29.83 in 6.2 mi West 15.0 mph - N/A   Scattered Clouds
7:20 PM 35.6 °F 28.6 °F 32.0 °F 87% 29.83 in 6.2 mi WSW 9.2 mph - N/A   Partly Cloudy
7:50 PM 37.4 °F 31.4 °F 32.0 °F 81% 29.83 in 6.2 mi WSW 8.1 mph - N/A Rain Light Rain
8:20 PM 35.6 °F 29.9 °F 33.8 °F 93% 29.86 in 6.2 mi WSW 6.9 mph - N/A Rain Light Rain
8:50 PM 37.4 °F 29.8 °F 33.8 °F 87% 29.83 in 6.2 mi West 11.5 mph - N/A   Mostly Cloudy
9:20 PM 39.2 °F 30.8 °F 32.0 °F 75% 29.86 in 6.2 mi West 15.0 mph - N/A   Mostly Cloudy
9:50 PM 39.2 °F 30.8 °F 32.0 °F 75% 29.86 in 6.2 mi West 15.0 mph - N/A   Mostly Cloudy
10:20 PM 37.4 °F 29.3 °F 32.0 °F 81% 29.86 in 6.2 mi West 12.7 mph - N/A   Scattered Clouds
10:50 PM 37.4 °F 30.3 °F 32.0 °F 81% 29.86 in 6.2 mi West 10.4 mph - N/A   Partly Cloudy
11:20 PM 37.4 °F 30.8 °F 33.8 °F 87% 29.86 in 6.2 mi West 9.2 mph - N/A Rain Light Rain
11:50 PM 37.4 °F 30.3 °F 33.8 °F 87% 29.86 in 5.0 mi WSW 10.4 mph - N/A Rain Light Rain